Location: Clarion
(42.7316°N, 93.7330°W)
Time: 09:45:22
(UTC+00:00)

SL-08 R/B - Pass Details

Date: 22 April 2026
Orbit: 956 x 1010 km, 82.9° (Epoch: 17 May)

Event Time Altitude Azimuth Distance (km) Brightness Sun altitude
Rises 02:57:39 0° 353° (N) 3,660 8.2 -19.2°
Reaches altitude 10° 03:00:09 10° 355° (N) 2,715 7.4 -19.5°
Maximum altitude 03:06:23 78° 81° (E) 1,001 4.4 -20.4°
Enters shadow 03:09:30 32° 164° (SSE) 1,619 5.2 -20.8°
